• In Czech Republic
  • List of Countries
  • For 7 days
  • Water Temperature
  • Satellite Maps
  • Weather Map
  • Weather Widgets
  • user-avatar
    Login

    Hourly Weather Saskatoon

    Today, 22 October, Sunday

    Time Temperature Precipitation Wind Pressure Humidity
    00:00 +3°C° 0 mm 2 mps 708 mmHg 73%
    01:00 +4°C° 0 mm 1 mps 708 mmHg 73%
    02:00 +4°C° 0 mm 1 mps 708 mmHg 73%
    03:00 +3°C° 0 mm 2 mps 707 mmHg 73%
    04:00 +2°C° 0 mm 2 mps 707 mmHg 74%
    05:00 +1°C° 0 mm 3 mps 706 mmHg 74%
    06:00 +2°C° 0 mm 3 mps 705 mmHg 71%
    07:00 +2°C° 0 mm 3 mps 705 mmHg 68%
    08:00 +3°C° 0 mm 4 mps 704 mmHg 65%
    09:00 +4°C° 0 mm 4 mps 703 mmHg 63%
    10:00 +5°C° 0 mm 4 mps 702 mmHg 61%
    11:00 +6°C° 0 mm 4 mps 701 mmHg 59%
    12:00 +8°C° 0 mm 4 mps 701 mmHg 57%
    13:00 +10°C° 0 mm 3 mps 701 mmHg 55%
    14:00 +11°C° 0 mm 3 mps 701 mmHg 53%
    15:00 +10°C° 0 mm 4 mps 702 mmHg 57%
    16:00 +8°C° 0 mm 4 mps 702 mmHg 61%
    17:00 +7°C° 0 mm 5 mps 703 mmHg 65%
    18:00 +7°C° 0 mm 6 mps 704 mmHg 67%
    19:00 +5°C° 0 mm 6 mps 705 mmHg 70%
    20:00 +4°C° 0 mm 7 mps 705 mmHg 72%
    21:00 +4°C° 0.3 mm 7 mps 707 mmHg 73%
    22:00 +3°C° 0.3 mm 7 mps 708 mmHg 75%
    23:00 +3°C° 0.3 mm 7 mps 709 mmHg 76%

    Tomorrow, 23 October, Monday

    Time Temperature Precipitation Wind Pressure Humidity
    00:00 +3°C° 0.1 mm 6 mps 710 mmHg 76%
    01:00 +3°C° 0.1 mm 5 mps 712 mmHg 76%
    02:00 +3°C° 0.1 mm 4 mps 713 mmHg 76%
    03:00 +4°C° 0 mm 4 mps 714 mmHg 75%
    04:00 +3°C° 0 mm 5 mps 714 mmHg 75%
    05:00 +3°C° 0 mm 5 mps 715 mmHg 74%
    06:00 +3°C° 0 mm 5 mps 716 mmHg 72%
    07:00 +3°C° 0 mm 6 mps 716 mmHg 71%
    08:00 +3°C° 0 mm 7 mps 717 mmHg 69%
    09:00 +4°C° 0 mm 7 mps 718 mmHg 66%
    10:00 +5°C° 0 mm 8 mps 719 mmHg 63%
    11:00 +5°C° 0 mm 8 mps 720 mmHg 59%
    12:00 +6°C° 0 mm 8 mps 720 mmHg 56%
    13:00 +6°C° 0 mm 8 mps 721 mmHg 53%
    14:00 +6°C° 0 mm 8 mps 722 mmHg 50%
    15:00 +6°C° 0 mm 7 mps 722 mmHg 53%
    16:00 +6°C° 0 mm 5 mps 723 mmHg 56%
    17:00 +5°C° 0 mm 4 mps 723 mmHg 59%
    18:00 +5°C° 0 mm 4 mps 724 mmHg 62%
    19:00 +4°C° 0 mm 3 mps 724 mmHg 66%
    20:00 +4°C° 0 mm 3 mps 724 mmHg 69%
    21:00 +3°C° 0 mm 3 mps 724 mmHg 70%
    22:00 +3°C° 0 mm 3 mps 724 mmHg 71%
    23:00 +3°C° 0 mm 3 mps 724 mmHg 72%

    Day after tomorrow, 24 October, Tuesday

    Time Temperature Precipitation Wind Pressure Humidity
    00:00 +2°C° 0 mm 3 mps 724 mmHg 71%
    01:00 +2°C° 0 mm 3 mps 723 mmHg 69%
    02:00 +2°C° 0 mm 3 mps 723 mmHg 68%
    03:00 +3°C° 0 mm 4 mps 722 mmHg 64%
    04:00 +3°C° 0 mm 4 mps 721 mmHg 61%
    05:00 +3°C° 0 mm 5 mps 720 mmHg 57%
    06:00 +5°C° 0 mm 5 mps 720 mmHg 55%
    07:00 +4°C° 0 mm 6 mps 719 mmHg 52%
    08:00 +5°C° 0 mm 6 mps 718 mmHg 50%
    09:00 +9°C° 0 mm 8 mps 717 mmHg 47%
    10:00 +12°C° 0 mm 9 mps 716 mmHg 44%
    11:00 +14°C° 0 mm 11 mps 716 mmHg 41%
    12:00 +14°C° 0 mm 11 mps 716 mmHg 41%
    13:00 +14°C° 0 mm 12 mps 715 mmHg 41%
    14:00 +14°C° 0 mm 13 mps 715 mmHg 41%
    15:00 +12°C° 0 mm 11 mps 716 mmHg 39%
    16:00 +11°C° 0 mm 10 mps 716 mmHg 38%
    17:00 +9°C° 0 mm 8 mps 717 mmHg 36%
    18:00 +7°C° 0 mm 8 mps 717 mmHg 40%
    19:00 +6°C° 0 mm 7 mps 717 mmHg 44%
    20:00 +5°C° 0 mm 6 mps 718 mmHg 47%
    21:00 +5°C° 0 mm 6 mps 718 mmHg 53%
    22:00 +5°C° 0 mm 5 mps 719 mmHg 58%
    23:00 +3°C° 0 mm 5 mps 719 mmHg 63%

    25 October, Wednesday

    Time Temperature Precipitation Wind Pressure Humidity
    00:00 +3°C° 0 mm 4 mps 719 mmHg 66%
    01:00 +3°C° 0 mm 4 mps 719 mmHg 70%
    02:00 +2°C° 0 mm 3 mps 719 mmHg 73%
    03:00 +3°C° 0 mm 2 mps 718 mmHg 74%
    04:00 +3°C° 0 mm 2 mps 718 mmHg 75%
    05:00 +4°C° 0 mm 1 mps 717 mmHg 76%
    06:00 +3°C° 0.1 mm 2 mps 716 mmHg 75%
    07:00 +2°C° 0.1 mm 3 mps 715 mmHg 74%
    08:00 +3°C° 0.1 mm 4 mps 714 mmHg 73%
    09:00 +2°C° 0.8 mm 5 mps 713 mmHg 74%
    10:00 +2°C° 0.8 mm 5 mps 712 mmHg 75%
    11:00 +2°C° 0.8 mm 6 mps 710 mmHg 76%
    12:00 +2°C° 0.5 mm 5 mps 709 mmHg 74%
    13:00 +3°C° 0.5 mm 5 mps 707 mmHg 72%
    14:00 +5°C° 0.5 mm 5 mps 706 mmHg 71%
    15:00 +5°C° 0.1 mm 4 mps 705 mmHg 72%
    16:00 +5°C° 0.1 mm 4 mps 704 mmHg 73%
    17:00 +5°C° 0.1 mm 3 mps 703 mmHg 74%
    18:00 +6°C° 0.1 mm 5 mps 703 mmHg 74%
    19:00 +5°C° 0.1 mm 6 mps 703 mmHg 74%
    20:00 +6°C° 0.1 mm 7 mps 703 mmHg 74%
    21:00 +3°C° 0.2 mm 9 mps 704 mmHg 76%
    22:00 +2°C° 0.2 mm 11 mps 706 mmHg 78%
    23:00 0°C° 0.2 mm 12 mps 707 mmHg 80%

    26 October, Thursday

    Time Temperature Precipitation Wind Pressure Humidity
    00:00 -1°C° 0.3 mm 12 mps 709 mmHg 79%
    01:00 -1°C° 0.3 mm 12 mps 711 mmHg 77%
    02:00 -1°C° 0.3 mm 12 mps 712 mmHg 75%
    03:00 -2°C° 0.1 mm 11 mps 714 mmHg 75%
    04:00 -3°C° 0.1 mm 11 mps 716 mmHg 74%
    05:00 -3°C° 0.1 mm 11 mps 718 mmHg 74%
    06:00 -4°C° 0 mm 10 mps 719 mmHg 74%
    07:00 -4°C° 0 mm 9 mps 720 mmHg 73%
    08:00 -5°C° 0 mm 9 mps 722 mmHg 73%
    09:00 -5°C° 0 mm 8 mps 722 mmHg 71%
    10:00 -3°C° 0 mm 7 mps 723 mmHg 69%
    11:00 -3°C° 0 mm 6 mps 724 mmHg 67%
    12:00 -3°C° 0 mm 6 mps 724 mmHg 66%
    13:00 -2°C° 0 mm 5 mps 725 mmHg 66%
    14:00 -2°C° 0 mm 5 mps 725 mmHg 65%
    15:00 -2°C° 0 mm 4 mps 725 mmHg 67%
    16:00 -2°C° 0 mm 3 mps 726 mmHg 69%
    17:00 -2°C° 0 mm 3 mps 726 mmHg 72%
    18:00 -3°C° 0 mm 2 mps 726 mmHg 75%
    19:00 -3°C° 0 mm 2 mps 727 mmHg 78%
    20:00 -4°C° 0 mm 2 mps 727 mmHg 81%
    21:00 -2°C° 0 mm 1 mps 727 mmHg 82%
    22:00 -2°C° 0 mm 1 mps 727 mmHg 83%
    23:00 -2°C° 0 mm 1 mps 727 mmHg 85%

    27 October, Friday

    Time Temperature Precipitation Wind Pressure Humidity
    00:00 -2°C° 0 mm 1 mps 727 mmHg 85%
    01:00 -3°C° 0 mm 1 mps 727 mmHg 85%
    02:00 -3°C° 0 mm 1 mps 727 mmHg 86%
    03:00 -3°C° 0 mm 1 mps 727 mmHg 86%
    04:00 -3°C° 0 mm 1 mps 727 mmHg 87%
    05:00 -3°C° 0 mm 1 mps 727 mmHg 87%
    06:00 -4°C° 0 mm 2 mps 727 mmHg 85%
    07:00 -4°C° 0 mm 2 mps 727 mmHg 83%
    08:00 -5°C° 0 mm 3 mps 727 mmHg 82%
    09:00 -4°C° 0 mm 3 mps 727 mmHg 75%
    10:00 -3°C° 0 mm 4 mps 726 mmHg 68%
    11:00 -1°C° 0 mm 4 mps 726 mmHg 61%
    12:00 -1°C° 0 mm 4 mps 725 mmHg 58%
    13:00 0°C° 0 mm 4 mps 725 mmHg 55%
    14:00 0°C° 0 mm 4 mps 724 mmHg 52%
    15:00 -1°C° 0 mm 4 mps 724 mmHg 56%
    16:00 -2°C° 0 mm 4 mps 723 mmHg 61%
    17:00 -3°C° 0 mm 4 mps 723 mmHg 65%
    18:00 -2°C° 0 mm 4 mps 722 mmHg 63%
    19:00 -2°C° 0 mm 5 mps 722 mmHg 61%
    20:00 -2°C° 0 mm 5 mps 721 mmHg 59%
    21:00 -2°C° 0.1 mm 5 mps 720 mmHg 57%
    22:00 -1°C° 0.1 mm 5 mps 720 mmHg 56%
    23:00 -1°C° 0.1 mm 5 mps 719 mmHg 55%
    Show more